{"data":{"norad_id":62161,"epoch":"2026-09-21T00:22:11.473248Z","epoch_age_seconds":137185,"freshness":"FRESH","line1":"1 62161U 24224Y   26264.01541057  .00016603  00000+0  61152-3 0  9996","line2":"2 62161  42.9973 138.3697 0001928 270.5725  89.4906 15.27578459102302","mean_motion":15.27578459,"eccentricity":0.0001928,"inclination_deg":42.9973,"raan_deg":138.3697,"arg_perigee_deg":270.5725,"mean_anomaly_deg":89.4906,"bstar":0.00061152,"rev_number":10230,"period_min":94.266843808643,"perigee_km":481.73087278295,"apogee_km":484.37654792086,"semimajor_km":6861.1907103519,"source":"CELESTRAK","updated_at":"2026-09-22T09:00:49.533883Z"}}